Regional Weather Roundup
Issued by NWS

Home | Current Version | Previous Version | Text Only | Print | Product List | Glossary On
Versions: 1 2 3 4 5 6 7 8 9 10 11 12 13 14 15 16 17 18 19 20 21 22 23 24 25 26 27 28 29 30 31 32 33 34 35 36 37 38 39 40 41 42 43 44 45 46 47 48 49 50
000
ASUS44 KMEG 200510
RWRTN
TENNESSEE HOURLY STATE WEATHER ROUNDUP
NATIONAL WEATHER SERVICE MEMPHIS TN
1200 AM CDT FRI OCT 20 2017

TNZ002-004-019-021-049-052-054-088>092-200600-
WEST TENNESSEE

CITY           SKY/WX    TMP DP  RH WIND       PRES   REMARKS
MEMPHIS INTL   FAIR      60  51  72 S6        30.21S
NWS MEMPHIS      N/A     54 N/A N/A MISG        N/A
JACKSON        FAIR      49  49 100 CALM      30.23S
SOMERVILLE     CLEAR     52  50  93 CALM      30.20F
COVINGTON      CLEAR     48  48 100 CALM      30.21S
UNION CITY     CLEAR     48  48 100 CALM      30.21S
BOLIVAR        CLEAR     50  48  93 CALM      30.22S
PARIS          CLEAR     50  48  93 CALM      30.21S
HUNTINGDON     CLEAR     50  48  93 CALM      30.22R
LEXINGTON      CLEAR     48  46  93 CALM      30.23S FOG
SELMER         CLEAR     55  50  82 S5        30.22S
SAVANNAH       CLEAR     48  48 100 CALM      30.22F
$$

TNZ008-025-027-028-033-062-065-066-200600-
NORTH MIDDLE TENNESSEE

CITY           SKY/WX    TMP DP  RH WIND       PRES   REMARKS
NASHVILLE      FAIR      51  48  89 S5        30.24F
PORTLAND       CLEAR     48  48 100 CALM      30.24S
CLARKSVILLE    FAIR      51  49  92 CALM      30.23S
SMYRNA         FAIR      47  47 100 CALM      30.26S
COOKEVILLE     CLEAR     41  41 100 CALM      30.25F FOG
GALLATIN       CLEAR     48  46  93 CALM      30.27S
CROSSVILLE     FAIR      46  44  93 CALM      30.29S
$$

TNZ061-075-076-078-094-096-097-200600-
SOUTH MIDDLE TENNESSEE

CITY           SKY/WX    TMP DP  RH WIND       PRES   REMARKS
FAYETTEVILLE   CLEAR     52  48  87 CALM      30.25S
TULLAHOMA      CLEAR     45  43  93 CALM      30.27S
WINCHESTER     CLEAR     43  43 100 CALM        N/A
COLUMBIA       CLEAR     48  46  93 CALM      30.23S
SHELBYVILLE    CLEAR     50  48  93 E6        30.25S
$$

TNZ017-018-042-046-047-200600-
NORTHEAST TENNESSEE

CITY           SKY/WX    TMP DP  RH WIND       PRES   REMARKS
TRI CITIES     FAIR      45  44  97 CALM      30.30S
ELIZABETHTON   CLEAR     48  43  81 NE3       30.31S
$$

TNZ012-013-036-069-073-074-200600-
CENTRAL EAST TENNESSEE

CITY           SKY/WX    TMP DP  RH WIND       PRES   REMARKS
KNOXVILLE      FAIR      52  49  89 CALM      30.26F
OAK RIDGE      FAIR      48  48 100 CALM      30.29S
DOWNTOWN KNOXV FOG       48  48 100 CALM      30.28S VSB 1
GATLINBURG     CLEAR     46  45  93 CALM      30.27S
MORRISTOWN     CLEAR     48  46  93 CALM      30.28S
JACKSBORO      PTCLDY    46  46 100 CALM      30.32S
$$

TNZ083-085-099-200600-
SOUTHEAST TENNESSEE

CITY           SKY/WX    TMP DP  RH WIND       PRES   REMARKS
CHATTANOOGA    FAIR      50  47  89 CALM      30.28S
DAYTON         CLEAR     46  46 100 CALM      30.27S
$$

SKY/WX REPORTED AS FAIR MEANS FEW OR NO CLOUDS BELOW
12 THOUSAND FEET.




USA.gov is the U.S. government's official web portal to all federal, state and local government web resources and services.